Zurück zum Katalog

DELTA 1 DEB

AktivSSO
NORAD 7065·DEBRIS·🇺🇸 United States

Gestartet Nov 6, 1973 von Vandenberg Space Force Base

Loading…

Nächste Überflüge (nächste 24 Stunden)

TLE

AktuellSource: Space-Track

Epoche: Sep 12, 2026, 09:25 UTC

1 07065U 73086BH  26255.39281583  .00000268  00000-0  25010-2 0  9997
2 07065 101.8700 224.6493 0044643 280.5530 234.7286 12.34388950374763

Verfolge DELTA 1 DEB in Echtzeit mit AllMySat

Download on the App Store